GW2818 Weather Reports


Display with metric or nautical units.
time (UTC)temp
F
wind
direction
speed
MPH
gust
MPH
rain 1hr
in
rain 24hr
in
rain mn
in
humidity
%
barometer
mb
20260510074541 52 0 0.0 1.0 0.01 0.78 0.36 94 1009.9
20260510073045 52 0 0.0 0.0 0.01 0.78 0.36 95 1009.8
20260510071544 52 0 0.0 0.0 0.01 0.78 0.36 95 1009.6
20260510070040 52 0 0.0 1.0 0.01 0.78 0.36 95 1010.0
20260510064540 52 0 0.0 0.0 0.00 0.77 0.35 95 1010.8
20260510063037 52 0 0.0 0.0 0.00 0.77 0.35 95 1010.4
20260510061542 52 0 0.0 0.0 0.17 0.77 0.35 95 1010.3
20260510060046 53 0 0.0 1.0 0.23 0.77 0.35 95 1010.5
20260510054538 53 0 0.0 1.0 0.27 0.77 0.35 95 1010.2
20260510053035 54 0 0.0 0.0 0.33 0.76 0.34 95 1009.8
20260510051541 53 0 0.0 0.0 0.17 0.58 0.17 95 1011.2
20260510050043 53 0 0.0 0.0 0.12 0.54 0.12 95 1011.0
20260510044542 53 0 0.0 0.0 0.08 0.50 0.08 95 1010.9
20260510043046 53 0 0.0 0.0 0.01 0.43 0.01 95 1010.6
20260510041552 53 0 0.0 0.0 0.00 0.42 0.00 95 1010.1
20260510040042 53 0 0.0 0.0 0.01 0.42 0.00 95 1009.8
20260510034535 53 0 0.0 0.0 0.07 0.43 0.42 95 1009.7
20260510033043 53 0 0.0 0.0 0.12 0.43 0.42 95 1009.9
20260510031541 54 0 0.0 1.0 0.18 0.43 0.42 95 1009.9
20260510030041 54 0 0.0 0.0 0.31 0.42 0.41 94 1010.1
20260510024551 54 0 0.0 2.0 0.26 0.38 0.34 93 1010.8
20260510023037 54 0 0.0 2.0 0.22 0.34 0.30 93 1011.2
20260510021542 54 278 0.0 1.0 0.15 0.27 0.23 90 1011.0
20260510020048 56 23 0.0 7.0 0.02 0.14 0.10 85 1010.8
20260510014542 59 336 1.0 9.0 0.00 0.14 0.08 75 1010.1
20260510013041 59 0 0.0 2.0 0.00 0.14 0.08 75 1008.3
20260510011540 59 0 0.0 1.0 0.00 0.14 0.08 75 1008.0
20260510010056 59 0 0.0 2.0 0.00 0.14 0.08 74 1007.9
20260510004536 60 0 0.0 3.0 0.00 0.14 0.08 73 1007.9
20260510003042 60 0 0.0 2.0 0.00 0.14 0.08 73 1007.9
20260510001539 61 0 0.0 1.0 0.00 0.14 0.08 71 1007.7
20260510000043 62 0 0.0 2.0 0.00 0.14 0.08 70 1007.5
20260509234556 62 91 0.0 2.0 0.00 0.14 0.08 71 1007.4
20260509233036 63 155 0.0 3.0 0.00 0.14 0.08 70 1007.3
20260509231536 63 99 0.0 1.0 0.00 0.14 0.08 68 1007.2
20260509230042 64 95 1.0 5.0 0.00 0.14 0.08 67 1007.2
20260509224540 65 113 1.0 5.0 0.00 0.14 0.08 66 1007.0
20260509223041 65 116 0.0 5.0 0.00 0.14 0.08 66 1006.7
20260509221601 65 238 0.0 3.0 0.00 0.14 0.08 68 1006.9
20260509220041 66 137 0.0 5.0 0.00 0.14 0.08 66 1007.2
20260509214540 67 295 1.0 5.0 0.00 0.14 0.08 63 1007.4
20260509213043 68 89 0.0 4.0 0.00 0.14 0.08 66 1007.3
20260509211542 67 135 0.0 4.0 0.00 0.14 0.08 68 1007.5
20260509210040 66 0 1.0 3.0 0.00 0.14 0.08 66 1007.6
20260509204538 66 77 1.0 5.0 0.00 0.14 0.08 69 1007.8
20260509203041 66 163 0.0 4.0 0.00 0.14 0.08 69 1008.0
20260509201535 65 0 0.0 10.0 0.00 0.14 0.08 71 1008.1
20260509200044 65 78 1.0 5.0 0.00 0.14 0.08 69 1008.3
20260509194538 65 150 1.0 4.0 0.00 0.16 0.08 71 1008.5
20260509193045 65 99 1.0 6.0 0.00 0.16 0.08 73 1008.6
20260509191552 65 27 2.0 5.0 0.00 0.16 0.08 70 1008.7
20260509190048 64 82 1.0 5.0 0.00 0.16 0.08 73 1008.7
20260509184541 64 219 0.0 5.0 0.00 0.16 0.08 74 1009.0
20260509183042 64 72 1.0 5.0 0.00 0.16 0.08 73 1009.1
20260509181539 62 233 0.0 5.0 0.00 0.16 0.08 80 1009.2
20260509180036 61 116 2.0 6.0 0.00 0.16 0.08 79 1009.2
20260509174537 60 0 0.0 5.0 0.00 0.16 0.08 80 1009.2
20260509173052 61 0 1.0 3.0 0.00 0.16 0.08 80 1009.2
20260509171548 60 110 0.0 3.0 0.00 0.16 0.08 83 1009.2
20260509170042 61 246 0.0 3.0 0.00 0.16 0.08 83 1009.0
20260509164546 59 0 0.0 6.0 0.00 0.16 0.08 86 1008.9
20260509163049 60 231 0.0 5.0 0.00 0.16 0.08 89 1008.8
20260509161540 59 0 0.0 5.0 0.00 0.16 0.08 89 1008.9
20260509160039 58 0 0.0 7.0 0.00 0.16 0.08 90 1009.0
20260509154537 57 155 0.0 6.0 0.00 0.16 0.08 95 1008.8
20260509153038 55 76 0.0 2.0 0.00 0.16 0.08 94 1008.8
20260509151542 53 0 0.0 2.0 0.00 0.16 0.08 95 1008.9
20260509150042 53 0 0.0 2.0 0.01 0.16 0.08 94 1008.9
20260509144546 52 0 0.0 1.0 0.01 0.16 0.08 94 1009.0
20260509143038 52 0 0.0 3.0 0.01 0.16 0.08 94 1009.0
20260509141544 52 0 0.0 1.0 0.01 0.16 0.08 94 1009.1
20260509140046 52 0 0.0 0.0 0.00 0.15 0.07 94 1009.1
20260509134550 51 0 0.0 1.0 0.00 0.15 0.07 94 1009.2
20260509133038 51 0 0.0 0.0 0.01 0.15 0.07 94 1009.2
20260509131556 51 0 0.0 3.0 0.02 0.15 0.07 94 1009.3
20260509130050 50 0 0.0 3.0 0.03 0.15 0.07 94 1009.4
20260509124543 50 0 0.0 4.0 0.03 0.15 0.07 95 1009.4
20260509123045 50 170 0.0 1.0 0.03 0.14 0.06 95 1009.4
20260509121543 50 0 0.0 3.0 0.03 0.13 0.05 95 1009.4
20260509120039 50 0 0.0 1.0 0.03 0.12 0.04 95 1009.5
20260509114537 50 0 0.0 2.0 0.03 0.12 0.04 95 1009.5
20260509113036 50 0 0.0 3.0 0.03 0.11 0.03 95 1009.5
20260509111535 49 0 0.0 1.0 0.02 0.10 0.02 95 1009.3
20260509110045 49 0 0.0 0.0 0.01 0.09 0.01 95 1009.2
20260509104549 49 0 0.0 0.0 0.01 0.09 0.01 95 1009.1
20260509103039 49 0 0.0 0.0 0.00 0.08 0.00 95 1009.1
20260509101538 48 0 0.0 1.0 0.00 0.08 0.00 95 1009.1
20260509100039 48 0 0.0 0.0 0.00 0.08 0.00 95 1009.2
20260509094536 48 0 0.0 0.0 0.00 0.08 0.00 95 1009.4
20260509093042 48 0 0.0 0.0 0.00 0.08 0.00 95 1009.4
20260509091538 48 0 0.0 0.0 0.00 0.08 0.00 95 1009.6
20260509090045 48 0 0.0 0.0 0.00 0.08 0.00 95 1009.6
20260509084538 48 0 0.0 0.0 0.00 0.08 0.00 95 1009.7
20260509083046 48 0 0.0 0.0 0.00 0.08 0.00 95 1009.7
20260509081544 48 0 0.0 0.0 0.00 0.08 0.00 95 1009.7
20260509080037 48 0 0.0 0.0 0.00 0.08 0.00 95 1009.8